This is the latest recevied weather packets stored in our database for station/object IR3AS. If no packets are shown the sender has not sent any weather packets the latest 10 day(s).
| Time | Temp. | Humidity | Pressure | Rain* | Wind** | Luminosity | Snow |
|---|---|---|---|---|---|---|---|
| 1787837701 | 20.56° C | 67% | 870.1 hPa | 0 mm | - | - | - |
| 1787837400 | 20.56° C | 67% | 869.8 hPa | 0 mm | - | - | - |
| 1787837100 | 20.56° C | 65% | 869.6 hPa | 0 mm | - | - | - |
| 1787836801 | 21.11° C | 64% | 869.2 hPa | 0 mm | - | - | - |
| 1787836500 | 21.67° C | 64% | 869.5 hPa | 0 mm | - | - | - |
| 1787836239 | 21.67° C | 64% | 869.6 hPa | 0 mm | - | - | - |
| 1787836200 | 21.67° C | 64% | 869.6 hPa | 0 mm | - | - | - |
| 1787835900 | 21.67° C | 64% | 869.9 hPa | 0 mm | - | - | - |
| 1787835600 | 21.67° C | 64% | 869.8 hPa | 0 mm | - | - | - |
| 1787835300 | 21.67° C | 63% | 869.3 hPa | 0 mm | - | - | - |
| 1787835000 | 22.22° C | 59% | 869.3 hPa | 0 mm | - | - | - |
| 1787834700 | 22.78° C | 61% | 869.4 hPa | 0 mm | - | - | - |
| 1787834400 | 22.78° C | 61% | 869.4 hPa | 0 mm | - | - | - |
| 1787834100 | 22.22° C | 62% | 869.3 hPa | 0 mm | - | - | - |
| 1787833800 | 21.67° C | 61% | 869.4 hPa | 0 mm | - | - | - |
| 1787833531 | 20.56° C | 62% | 869.2 hPa | 0 mm | - | - | - |
| 1787833500 | 20.56° C | 62% | 869.2 hPa | 0 mm | - | - | - |
| 1787833200 | 20° C | 63% | 869.4 hPa | 0 mm | - | - | - |
| 1787832901 | 19.44° C | 64% | 869.2 hPa | 0 mm | - | - | - |
| 1787832601 | 19.44° C | 64% | 869.2 hPa | 0 mm | - | - | - |
| 1787832300 | 19.44° C | 63% | 869.2 hPa | 0 mm | - | - | - |
| 1787832000 | 19.44° C | 63% | 869.2 hPa | 0 mm | - | - | - |
| 1787831701 | 19.44° C | 62% | 869.5 hPa | 0 mm | - | - | - |
| 1787831401 | 20° C | 61% | 869.2 hPa | 0 mm | - | - | - |
| 1787831155 | 20.56° C | 59% | 869.1 hPa | 0 mm | - | - | - |
* Rain latest hour (hover to see other rain measurements)
** Current wind speed in m/s (hover to see current wind gust speed)